Brownwood, TX

4:48 PM CDT on September 23, 2017 (GMT -0500)
Brownwood Regional

Weather History for KBWD - April, 2014

Change the Weather History Date:

Sunday, April 13, 2014

  Actual Average (KABI) Record (KABI)
Temperature  
Mean Temperature 70 °F -  
Max Temperature 77 °F 73 °F 98 °F (1972)
Min Temperature 62 °F 49 °F 27 °F (1997)
Cooling Degree Days 4    
Growing Degree Days 20 (Base 50)    
Moisture  
Dew Point 63 °F    
Average Humidity 81    
Maximum Humidity 100    
Minimum Humidity 65    
Precipitation  
Precipitation 0.43 in - - ()
Sea Level Pressure  
Sea Level Pressure 29.73 in    
Wind  
Wind Speed 13 mph (South)    
Max Wind Speed 22 mph    
Max Gust Speed 31 mph    
Visibility 9 miles    
Events Rain , Thunderstorm    
Averages and records for this station are not official NWS values.
T = Trace of Precipitation, MM = Missing Value Source: NWS Daily Summary

Daily Weather History Graph

Daily Weather History Graph

Search for Another Location

Airport or City:

Trip Planner

Search our weather history database for the weather conditions in past years. The results will help you decide how hot, cold, wet, or windy it might be!

Date:

Astronomy

Apr. 13, 2014 Rise Set
Actual Time 7:09 AM CDT 8:03 PM CDT
Civil Twilight 6:44 AM CDT 8:28 PM CDT
Nautical Twilight 6:15 AM CDT 8:58 PM CDT
Astronomical Twilight 5:44 AM CDT 9:28 PM CDT
Moon 6:47 PM CDT (4/13) 6:03 AM CDT (4/13)
Length of Visible Light 13h 43m
Length of Day
12h 54m
Waxing Gibbous, 97% of the Moon is Illuminated
Apr 13
Waxing Gibbous
Apr 15
Full
Apr 22
Last Quarter
Apr 29
New
May 6
First Quarter

Hourly Weather History & Observations

Time (CDT) Temp. Dew Point Humidity Pressure Visibility Wind Dir Wind Speed Gust Speed Precip Events Conditions
12:15 AM 73.4 °F 62.6 °F 69% 29.77 in 10.0 mi SSE 16.1 mph 20.7 mph N/A   Mostly Cloudy
12:35 AM 73.4 °F 62.6 °F 69% 29.78 in 10.0 mi SSE 13.8 mph 20.7 mph N/A   Overcast
12:55 AM 73.4 °F 62.6 °F 69% 29.79 in 10.0 mi South 13.8 mph 19.6 mph N/A   Overcast
1:15 AM 73.4 °F 64.4 °F 73% 29.79 in 10.0 mi South 13.8 mph 20.7 mph N/A   Overcast
1:35 AM 73.4 °F 64.4 °F 73% 29.78 in 10.0 mi South 12.7 mph 19.6 mph N/A   Overcast
1:55 AM 71.6 °F 64.4 °F 78% 29.78 in 10.0 mi South 15.0 mph 20.7 mph N/A   Mostly Cloudy
2:15 AM 71.6 °F 64.4 °F 78% 29.79 in 10.0 mi South 17.3 mph 23.0 mph N/A   Overcast
2:35 AM 71.6 °F 64.4 °F 78% 29.79 in 10.0 mi South 16.1 mph 21.9 mph N/A   Overcast
2:55 AM 71.6 °F 64.4 °F 78% 29.78 in 10.0 mi South 16.1 mph 23.0 mph N/A   Mostly Cloudy
3:15 AM 71.6 °F 62.6 °F 73% 29.77 in 10.0 mi South 19.6 mph 26.5 mph N/A   Overcast
3:35 AM 71.6 °F 62.6 °F 73% 29.77 in 10.0 mi South 21.9 mph 31.1 mph N/A   Overcast
3:55 AM 71.6 °F 62.6 °F 73% 29.75 in 10.0 mi South 18.4 mph 27.6 mph N/A   Overcast
4:15 AM 71.6 °F 62.6 °F 73% 29.75 in 10.0 mi South 17.3 mph 27.6 mph N/A   Mostly Cloudy
4:35 AM 71.6 °F 62.6 °F 73% 29.76 in 10.0 mi South 17.3 mph 25.3 mph N/A   Mostly Cloudy
4:55 AM 69.8 °F 62.6 °F 78% 29.76 in 10.0 mi South 12.7 mph 23.0 mph N/A   Overcast
5:15 AM 69.8 °F 62.6 °F 78% 29.74 in 10.0 mi SSE 15.0 mph - N/A   Mostly Cloudy
5:35 AM 68.0 °F 62.6 °F 83% 29.74 in 9.0 mi SSE 11.5 mph 17.3 mph N/A   Overcast
5:55 AM 68.0 °F 62.6 °F 83% 29.73 in 10.0 mi SE 12.7 mph - N/A Rain Light Rain
6:15 AM 68.0 °F 62.6 °F 83% 29.71 in 10.0 mi ESE 12.7 mph 16.1 mph N/A   Overcast
6:35 AM 68.0 °F 62.6 °F 83% 29.73 in 10.0 mi SSW 13.8 mph 20.7 mph N/A   Mostly Cloudy
6:55 AM 68.0 °F 62.6 °F 83% 29.73 in 10.0 mi SSE 12.7 mph 17.3 mph N/A   Overcast
7:15 AM 68.0 °F 62.6 °F 83% 29.72 in 10.0 mi SSE 13.8 mph 21.9 mph N/A   Mostly Cloudy
7:35 AM 68.0 °F 62.6 °F 83% 29.73 in 10.0 mi South 18.4 mph 21.9 mph N/A   Scattered Clouds
7:55 AM 68.0 °F 62.6 °F 83% 29.79 in 10.0 mi SSW 13.8 mph 24.2 mph N/A   Scattered Clouds
8:15 AM 68.0 °F 64.4 °F 88% 29.82 in 8.0 mi West 9.2 mph - N/A   Overcast
8:35 AM 66.2 °F 64.4 °F 94% 29.82 in 7.0 mi WSW 8.1 mph - N/A Rain Light Rain
8:55 AM 66.2 °F 64.4 °F 94% 29.83 in 4.0 mi SW 6.9 mph - 0.01 in Rain Light Rain
9:15 AM 66.2 °F 64.4 °F 94% 29.83 in 5.0 mi South 8.1 mph - N/A Rain Light Rain
9:35 AM 66.2 °F 64.4 °F 94% 29.83 in 5.0 mi West 8.1 mph - N/A Rain , Thunderstorm Light Rain
9:55 AM 62.6 °F 62.6 °F 100% 29.84 in 1.8 mi WNW 5.8 mph - 0.29 in Rain Rain
10:15 AM 64.4 °F 62.6 °F 94% 29.83 in 6.0 mi NW 3.5 mph - 0.01 in Rain Light Rain
10:35 AM 64.4 °F 62.6 °F 94% 29.82 in 2.5 mi Calm Calm - 0.04 in Rain Light Rain
10:55 AM 64.4 °F 62.6 °F 94% 29.81 in 7.0 mi SE 4.6 mph - 0.05 in Rain Light Rain
11:15 AM 66.2 °F 64.4 °F 94% 29.79 in 4.0 mi SE 12.7 mph 16.1 mph N/A Rain Light Rain
11:35 AM 66.2 °F 66.2 °F 100% 29.78 in 4.0 mi SSE 5.8 mph - N/A Rain Light Rain
11:55 AM 68.0 °F 66.2 °F 94% 29.78 in 8.0 mi SSE 9.2 mph - N/A   Mostly Cloudy
12:15 PM 68.0 °F 66.2 °F 94% 29.76 in 8.0 mi SSE 11.5 mph - N/A   Mostly Cloudy
12:35 PM 68.0 °F 66.2 °F 94% 29.74 in 9.0 mi SSE 12.7 mph - N/A   Partly Cloudy
12:55 PM 69.8 °F 66.2 °F 88% 29.73 in 9.0 mi SSE 16.1 mph 21.9 mph N/A   Partly Cloudy
1:15 PM 71.6 °F 66.2 °F 83% 29.73 in 10.0 mi South 12.7 mph 21.9 mph N/A   Partly Cloudy
1:35 PM 71.6 °F 66.2 °F 83% 29.72 in 10.0 mi South 17.3 mph - N/A   Partly Cloudy
1:55 PM 71.6 °F 66.2 °F 83% 29.70 in 10.0 mi South 17.3 mph 25.3 mph N/A   Clear
2:15 PM 71.6 °F 66.2 °F 83% 29.70 in 10.0 mi South 18.4 mph 24.2 mph N/A   Clear
2:35 PM 73.4 °F 66.2 °F 78% 29.69 in 10.0 mi South 19.6 mph 24.2 mph N/A   Clear
2:55 PM 75.2 °F 66.2 °F 73% 29.68 in 10.0 mi South 15.0 mph 20.7 mph N/A   Clear
3:15 PM 75.2 °F 66.2 °F 73% 29.68 in 10.0 mi South 16.1 mph 21.9 mph N/A   Partly Cloudy
3:35 PM 77.0 °F 66.2 °F 69% 29.67 in 10.0 mi South 16.1 mph 23.0 mph N/A   Clear
3:55 PM 77.0 °F 66.2 °F 69% 29.66 in 10.0 mi South 17.3 mph 26.5 mph N/A   Clear
4:15 PM 77.0 °F 64.4 °F 65% 29.65 in 10.0 mi South 17.3 mph 25.3 mph N/A   Partly Cloudy
4:35 PM 77.0 °F 64.4 °F 65% 29.63 in 10.0 mi South 20.7 mph 28.8 mph N/A   Clear
4:55 PM 77.0 °F 64.4 °F 65% 29.64 in 10.0 mi South 18.4 mph 26.5 mph N/A   Clear
5:15 PM 75.2 °F 64.4 °F 69% 29.66 in 7.0 mi SW 11.5 mph 21.9 mph N/A Thunderstorm Scattered Clouds
5:35 PM 71.6 °F 62.6 °F 73% 29.63 in 4.0 mi SSE 11.5 mph 24.2 mph 0.08 in Rain , Thunderstorm Light Rain
5:55 PM 73.4 °F 62.6 °F 69% 29.63 in 10.0 mi SSW 16.1 mph 21.9 mph 0.08 in   Clear
6:15 PM 71.6 °F 62.6 °F 73% 29.63 in 10.0 mi South 10.4 mph 19.6 mph N/A   Clear
6:35 PM 71.6 °F 62.6 °F 73% 29.62 in 10.0 mi SSE 11.5 mph 17.3 mph N/A   Clear
6:55 PM 69.8 °F 59.0 °F 68% 29.63 in 10.0 mi SSE 12.7 mph 19.6 mph N/A   Clear
7:15 PM 69.8 °F 59.0 °F 68% 29.64 in 10.0 mi SSE 13.8 mph 18.4 mph N/A   Clear
7:35 PM 69.8 °F 59.0 °F 68% 29.64 in 10.0 mi SSE 10.4 mph 17.3 mph N/A   Clear
7:55 PM 68.0 °F 62.6 °F 83% 29.64 in 10.0 mi SSE 9.2 mph - N/A   Clear
8:15 PM 68.0 °F 62.6 °F 83% 29.65 in 10.0 mi Calm Calm - N/A   Clear
8:35 PM 66.2 °F 59.0 °F 78% 29.66 in 10.0 mi South 4.6 mph - N/A   Scattered Clouds
8:55 PM 66.2 °F 59.0 °F 78% 29.67 in 10.0 mi SSE 6.9 mph - N/A   Mostly Cloudy
9:15 PM 66.2 °F 59.0 °F 78% 29.67 in 10.0 mi SE 4.6 mph - N/A   Overcast
9:35 PM 66.2 °F 59.0 °F 78% 29.67 in 10.0 mi SSE 4.6 mph - N/A   Mostly Cloudy
9:55 PM 64.4 °F 59.0 °F 83% 29.68 in 10.0 mi SSE 4.6 mph - N/A   Mostly Cloudy
10:15 PM 64.4 °F 59.0 °F 83% 29.68 in 10.0 mi SSE 5.8 mph - N/A   Partly Cloudy
10:35 PM 64.4 °F 60.8 °F 88% 29.69 in 10.0 mi South 4.6 mph - N/A   Clear
10:55 PM 64.4 °F 60.8 °F 88% 29.69 in 10.0 mi South 6.9 mph - N/A   Clear
11:15 PM 64.4 °F 60.8 °F 88% 29.69 in 10.0 mi South 6.9 mph - N/A   Clear
11:35 PM 64.4 °F 60.8 °F 88% 29.69 in 10.0 mi SSE 5.8 mph - N/A   Clear
11:55 PM 64.4 °F 62.6 °F 94% 29.69 in 9.0 mi SSE 5.8 mph - N/A   Clear